Date String (YYYY-MM-DD hh:mm:ss) UTC,Instrument flags,absolute air pressure of the measurement (hPa),sample flow rate (lpm),inlet stack bypass flow (lpm),air temperature of the measurement (°C),ambient temperature measured by the external sensor (°C),aerosol sample conditioner tube jacket temperature (°C),OPC LED temperature (°C),internal box temperature (°C),relative humidity of the measurement (%),span deviation,mass concentration of particles derived from Lorenz-Mie calculation of OPC scattering (μg/m³),mass concentration of particles derived from Lorenz-Mie calculation of OPC scattering (μg/m³),mass concentration of particles derived from Lorenz-Mie calculation of OPC scattering (μg/m³)
DateTimeUTC,F1_M11,P_M11,Q1_M11,Q2_M11,T1_M11,T2_M11,T3_M11,T4_M11,T5_M11,U1_M11,ZSPAN_M11,X2_M11,X0_M11,X1_M11
2023-10-29 10:00:00,SystemResetWarning,0835.5,4.99,000.00,022.0,021.6,000.0,030.1,023.7,12.9,0000.0,0005.03,0006.73,0004.91
2023-10-29 10:01:00,SystemResetWarning,0835.6,4.99,000.00,022.0,021.4,000.0,030.2,023.6,12.8,0000.0,0004.99,0006.63,0004.89
2023-10-29 10:02:00,SystemResetWarning,0835.6,5.00,000.00,022.0,021.3,000.0,030.2,023.6,12.8,0000.0,0004.98,0006.58,0004.87
2023-10-29 10:03:00,SystemResetWarning,0835.6,5.01,000.00,022.0,021.1,000.0,030.2,023.5,12.8,0000.0,0004.96,0006.51,0004.86
2023-10-29 10:04:00,SystemResetWarning,0835.6,5.01,000.00,021.9,021.0,000.0,030.2,023.5,12.7,0000.0,0004.94,0006.45,0004.85
2023-10-29 10:05:00,SystemResetWarning,0835.6,5.00,000.00,021.9,020.9,000.0,030.2,023.4,12.7,0000.0,0004.93,0006.42,0004.84
2023-10-29 10:06:00,SystemResetWarning,0835.6,5.00,000.00,021.9,020.8,000.0,030.2,023.4,12.7,0000.0,0004.92,0006.41,0004.84
2023-10-29 10:07:00,SystemResetWarning,0835.6,5.00,000.00,021.9,020.7,000.0,030.2,023.3,12.7,0000.0,0004.92,0006.40,0004.83
2023-10-29 10:08:00,SystemResetWarning,0835.6,5.00,000.00,021.9,020.6,000.0,030.2,023.3,12.7,0000.0,0004.94,0006.49,0004.85
2023-10-29 10:09:00,SystemResetWarning,0835.6,5.00,000.00,021.8,020.5,000.0,030.2,023.3,12.7,0000.0,0004.93,0006.43,0004.84
2023-10-29 10:10:00,SystemResetWarning,0835.6,4.99,000.00,021.8,020.5,000.0,030.2,023.3,12.8,0000.0,0004.91,0006.36,0004.83
2023-10-29 10:11:00,SystemResetWarning,0835.7,4.99,000.00,021.8,020.4,000.0,030.2,023.3,12.8,0000.0,0004.92,0006.38,0004.84
2023-10-29 10:12:00,SystemResetWarning,0835.6,5.00,000.00,021.8,020.4,000.0,030.2,023.2,12.8,0000.0,0004.96,0006.51,0004.88
2023-10-29 10:13:00,SystemResetWarning,0835.8,5.00,000.00,021.8,020.4,000.0,030.2,023.2,12.8,0000.0,0005.00,0006.61,0004.91
2023-10-29 10:14:00,SystemResetWarning,0835.7,5.00,000.00,021.8,020.3,000.0,030.2,023.2,12.8,0000.0,0005.02,0006.65,0004.92
2023-10-29 10:15:00,SystemResetWarning,0835.7,5.00,000.00,021.8,020.3,000.0,030.2,023.2,12.8,0000.0,0005.02,0006.67,0004.91
2023-10-29 10:16:00,SystemResetWarning,0835.7,5.00,000.00,021.7,020.3,000.0,030.2,023.2,12.8,0000.0,0005.01,0006.71,0004.89
2023-10-29 10:17:00,SystemResetWarning,0835.7,5.00,000.00,021.7,020.3,000.0,030.2,023.2,12.8,0000.0,0005.04,0006.84,0004.90
2023-10-29 10:18:00,SystemResetWarning,0835.8,5.00,000.00,021.7,020.3,000.0,030.2,023.2,12.8,0000.0,0005.05,0006.85,0004.90
2023-10-29 10:19:00,SystemResetWarning,0835.8,5.00,000.00,021.7,020.2,000.0,030.2,023.2,12.9,0000.0,0005.04,0006.78,0004.91
2023-10-29 10:20:00,SystemResetWarning,0835.7,5.00,000.00,021.7,020.2,000.0,030.1,023.1,12.9,0000.0,0005.06,0006.87,0004.92
2023-10-29 10:21:00,SystemResetWarning,0835.7,5.00,000.00,021.7,020.2,000.0,030.1,023.1,12.9,0000.0,0005.09,0006.94,0004.94
2023-10-29 10:22:00,SystemResetWarning,0835.7,5.00,000.00,021.7,020.2,000.0,030.1,023.1,12.9,0000.0,0005.10,0006.97,0004.94
2023-10-29 10:23:00,SystemResetWarning,0835.7,5.00,000.00,021.7,020.2,000.0,030.1,023.1,12.9,0000.0,0005.08,0006.94,0004.93
2023-10-29 10:24:00,SystemResetWarning,0835.8,5.00,000.00,021.7,020.2,000.0,030.1,023.2,12.9,0000.0,0005.08,0006.91,0004.93
2023-10-29 10:25:00,SystemResetWarning,0835.8,5.01,000.00,021.8,020.8,000.0,030.0,023.5,12.8,0000.0,0005.09,0006.89,0004.94
2023-10-29 10:26:00,SystemResetWarning,0835.8,5.00,000.00,021.9,021.5,000.0,030.0,023.8,12.8,0000.0,0005.11,0006.90,0004.97
2023-10-29 10:27:00,SystemResetWarning,0835.8,4.98,000.00,021.9,021.6,000.0,030.0,023.7,12.7,0000.0,0005.14,0006.92,0005.01
2023-10-29 10:28:00,SystemResetWarning,0835.8,5.01,000.00,021.9,021.5,000.0,030.1,023.6,12.7,0000.0,0005.14,0006.84,0005.04
2023-10-29 10:29:00,SystemResetWarning,0835.8,5.01,000.00,021.9,021.3,000.0,030.1,023.5,12.7,0000.0,0005.18,0006.90,0005.06
2023-10-29 10:30:00,SystemResetWarning,0835.8,5.00,000.00,021.9,021.2,000.0,030.1,023.5,12.7,0000.0,0005.21,0007.04,0005.08
2023-10-29 10:31:00,SystemResetWarning,0835.8,4.99,000.00,021.9,021.1,000.0,030.2,023.4,12.7,0000.0,0005.21,0007.01,0005.10
2023-10-29 10:32:00,SystemResetWarning,0835.8,4.99,000.00,021.9,021.0,000.0,030.2,023.4,12.7,0000.0,0005.23,0007.04,0005.11
2023-10-29 10:33:00,SystemResetWarning,0835.8,4.99,000.00,021.9,020.9,000.0,030.2,023.4,12.7,0000.0,0005.24,0007.05,0005.14
2023-10-29 10:34:00,SystemResetWarning,0835.8,5.01,000.00,021.9,020.8,000.0,030.2,023.3,12.7,0000.0,0005.25,0007.05,0005.15
2023-10-29 10:35:00,SystemResetWarning,0835.8,5.02,000.00,021.8,020.7,000.0,030.2,023.3,12.7,0000.0,0005.27,0007.11,0005.16
2023-10-29 10:36:00,SystemResetWarning,0835.8,4.99,000.00,021.8,020.6,000.0,030.2,023.3,12.8,0000.0,0005.29,0007.17,0005.17
2023-10-29 10:37:00,SystemResetWarning,0835.8,4.99,000.00,021.8,020.5,000.0,030.2,023.3,12.8,0000.0,0005.31,0007.24,0005.18
2023-10-29 10:38:00,SystemResetWarning,0835.8,4.99,000.00,021.8,020.5,000.0,030.2,023.3,12.8,0000.0,0005.30,0007.22,0005.18
2023-10-29 10:39:00,SystemResetWarning,0835.8,4.99,000.00,021.8,020.4,000.0,030.2,023.2,12.8,0000.0,0005.31,0007.24,0005.19
2023-10-29 10:40:00,SystemResetWarning,0835.9,5.00,000.00,021.8,020.4,000.0,030.2,023.2,12.8,0000.0,0005.31,0007.22,0005.20
2023-10-29 10:41:00,SystemResetWarning,0835.9,5.00,000.00,021.7,020.4,000.0,030.2,023.2,12.8,0000.0,0005.30,0007.14,0005.21
2023-10-29 10:42:00,SystemResetWarning,0835.9,5.00,000.00,021.7,020.3,000.0,030.2,023.2,12.8,0000.0,0005.31,0007.14,0005.23
2023-10-29 10:43:00,SystemResetWarning,0835.9,5.00,000.00,021.7,020.3,000.0,030.2,023.2,12.8,0000.0,0005.31,0007.08,0005.23
2023-10-29 10:44:00,SystemResetWarning,0835.9,5.00,000.00,021.7,020.3,000.0,030.2,023.2,12.8,0000.0,0005.30,0007.05,0005.23
2023-10-29 10:45:00,SystemResetWarning,0835.9,5.00,000.00,021.7,020.3,000.0,030.1,023.1,12.8,0000.0,0005.31,0007.04,0005.23
2023-10-29 10:46:00,SystemResetWarning,0835.9,5.01,000.00,021.7,020.3,000.0,030.1,023.1,12.9,0000.0,0005.29,0006.96,0005.22
2023-10-29 10:47:00,SystemResetWarning,0835.9,5.01,000.00,021.7,020.2,000.0,030.1,023.1,12.9,0000.0,0005.29,0006.97,0005.22
2023-10-29 10:48:00,SystemResetWarning,0835.9,4.99,000.00,021.7,020.2,000.0,030.1,023.1,12.9,0000.0,0005.27,0006.93,0005.21
2023-10-29 10:49:00,SystemResetWarning,0835.9,4.99,000.00,021.7,020.2,000.0,030.1,023.1,12.9,0000.0,0005.25,0006.88,0005.19
2023-10-29 10:50:00,SystemResetWarning,0836.0,5.00,000.00,021.7,020.2,000.0,030.1,023.1,12.9,0000.0,0005.24,0006.87,0005.18
2023-10-29 10:51:00,SystemResetWarning,0835.9,5.00,000.00,021.7,020.2,000.0,030.1,023.1,12.9,0000.0,0005.22,0006.80,0005.16
2023-10-29 10:52:00,SystemResetWarning,0835.9,5.01,000.00,021.6,020.2,000.0,030.1,023.1,12.9,0000.0,0005.20,0006.77,0005.14
2023-10-29 10:53:00,SystemResetWarning,0836.0,5.01,000.00,021.6,020.2,000.0,030.1,023.1,12.9,0000.0,0005.19,0006.77,0005.12
2023-10-29 10:54:00,SystemResetWarning,0836.1,5.00,000.00,021.7,020.5,000.0,030.0,023.3,12.9,0000.0,0005.18,0006.81,0005.11
2023-10-29 10:55:00,SystemResetWarning,0836.1,5.00,000.00,021.8,021.3,000.0,029.9,023.7,12.8,0000.0,0005.19,0006.86,0005.11
2023-10-29 10:56:00,SystemResetWarning,0836.1,5.00,000.00,021.9,021.6,000.0,030.0,023.8,12.7,0000.0,0005.18,0006.86,0005.10
2023-10-29 10:57:00,SystemResetWarning,0836.1,4.99,000.00,021.9,021.5,000.0,030.0,023.7,12.7,0000.0,0005.20,0006.89,0005.11
2023-10-29 10:58:00,SystemResetWarning,0836.1,4.99,000.00,021.9,021.4,000.0,030.1,023.6,12.7,0000.0,0005.22,0006.91,0005.14
2023-10-29 10:59:00,SystemResetWarning,0836.1,4.99,000.00,021.9,021.3,000.0,030.1,023.5,12.7,0000.0,0005.28,0006.98,0005.20
